Regional Weather Roundup
Issued by NWS

Home | Current Version | Previous Version | Graphics & Text | Print | Product List | Glossary On
Versions: 1 2 3 4 5 6 7 8 9 10 11 12 13 14 15 16 17 18 19 20 21 22 23 24 25 26 27 28 29 30 31 32 33 34 35 36 37 38 39 40 41 42 43 44 45 46 47 48 49 50
000
ASUS43 KOAX 291802
RWRNE

WEATHER ROUNDUP FOR NEBRASKA
NATIONAL WEATHER SERVICE OMAHA NE
100 PM CDT FRI APR 29 2016

NOTES: SATELLITE DATA IS BEING USED TO AUGMENT CLOUD COVER ABOVE
       12000 FEET.
       "FAIR" INDICATES FEW OR NO CLOUDS BELOW 12,000 FEET WITH NO
       SIGNIFICANT WEATHER AND/OR OBSTRUCTIONS TO VISIBILITY.

  * THESE STATIONS DO NOT REPORT WEATHER SUCH AS RAIN...SNOW OR FOG.

NEZ001>004-019>022-054>056-291900-
NEBRASKA PANHANDLE

CITY           SKY/WX    TMP DP  RH WIND       PRES   REMARKS
SCOTTSBLUFF    CLOUDY    43  34  70 E5        30.01S
6HR MIN TEMP:  36; 6HR MAX TEMP:  44;

ALLIANCE       CLOUDY    43  36  76 NE16      30.01S
6HR MIN TEMP:  36; 6HR MAX TEMP:  45;

CHADRON        CLOUDY    44  36  73 NE9       30.05R
6HR MIN TEMP:  37; 6HR MAX TEMP:  44;

KIMBALL        DRIZZLE   38  35  89 NE14      29.98S WCI  30
SIDNEY         CLOUDY    42  34  73 NE13      29.99F
6HR MIN TEMP:  35; 6HR MAX TEMP:  42;

$$

NEZ057>060-069>072-079>082-291900-
SOUTHWEST NEBRASKA

CITY           SKY/WX    TMP DP  RH WIND       PRES   REMARKS
NORTH PLATTE   CLOUDY    42  36  79 NE14      30.03F
6HR MIN TEMP:  38; 6HR MAX TEMP:  43;

IMPERIAL       LGT RAIN  41  36  82 E18       30.00F
6HR MIN TEMP:  40; 6HR MAX TEMP:  42; 6HR PCP: TRACE;

MCCOOK         LGT RAIN  43  37  79 E17       30.02S
6HR MIN TEMP:  42; 6HR MAX TEMP:  44; 6HR PCP: TRACE;

$$

NEZ005>010-023>029-035>040-094-291900-
NORTH CENTRAL NEBRASKA

CITY           SKY/WX    TMP DP  RH WIND       PRES   REMARKS
VALENTINE      CLOUDY    41  36  82 E15       30.08R
6HR MIN TEMP:  39; 6HR MAX TEMP:  44;

BROKEN BOW     CLOUDY    43  38  82 E13       30.05F
6HR MIN TEMP:  38; 6HR MAX TEMP:  44; 6HR PCP: TRACE;

ORD            CLOUDY    43  39  86 E10       30.06F
6HR MIN TEMP:  42; 6HR MAX TEMP:  44;

$$

NEZ041-046>049-061>064-073>077-083>087-291900-
SOUTH CENTRAL NEBRASKA

CITY           SKY/WX    TMP DP  RH WIND       PRES   REMARKS
GRAND ISLAND   CLOUDY    45  38  76 NE9       30.05F
6HR MIN TEMP:  40; 6HR MAX TEMP:  46;

AURORA         CLOUDY    45  40  81 E12       30.05S
HASTINGS       CLOUDY    44  38  79 NE16      30.03F
6HR MIN TEMP:  40; 6HR MAX TEMP:  44;

KEARNEY *      CLOUDY    43  37  81 NE16      30.04F
YORK           CLOUDY    45  39  81 E10       30.06S
$$

NEZ011>018-030>034-042>045-291900-
NORTHEAST NEBRASKA

CITY           SKY/WX    TMP DP  RH WIND       PRES   REMARKS
NORFOLK        CLOUDY    43  38  82 E9        30.07F
6HR MIN TEMP:  42; 6HR MAX TEMP:  44;

ALBION         CLOUDY    44  39  83 E6        30.08S FOG
BLAIR          CLOUDY    46  41  83 NE8G16    30.07S
COLUMBUS *     CLOUDY    45  36  70 NE9       30.09R
FREMONT        CLOUDY    46  40  79 E9        30.08R
TEKAMAH        CLOUDY    47  43  86 NE13      30.08F
6HR MIN TEMP:  43; 6HR MAX TEMP:  47; 6HR PCP: TRACE;

$$

NEZ050>053-065>068-078-088>093-291900-
SOUTHEAST NEBRASKA

CITY           SKY/WX    TMP DP  RH WIND       PRES   REMARKS
LINCOLN        CLOUDY    48  39  71 NE10      30.07F
6HR MIN TEMP:  45; 6HR MAX TEMP:  48;

OMAHA EPPLEY   CLOUDY    48  40  73 NE9       30.08S
6HR MIN TEMP:  45; 6HR MAX TEMP:  49;

FALLS CITY     CLOUDY    50  44  80 E12       30.05R
6HR MIN TEMP:  46; 6HR MAX TEMP:  51;

$$

NEZ044-045-051>053-067-291900-
OMAHA AREA

CITY           SKY/WX    TMP DP  RH WIND       PRES   REMARKS
OMAHA EPPLEY   CLOUDY    48  40  73 NE9       30.08S
6HR MIN TEMP:  45; 6HR MAX TEMP:  49;

BLAIR          CLOUDY    46  41  83 NE8G16    30.07S
FREMONT        CLOUDY    46  40  79 E9        30.08R
OFFUTT AFB     CLOUDY    48  41  77 NE10      30.06F
$$




USA.gov is the U.S. government's official web portal to all federal, state and local government web resources and services.